Regional Weather Roundup
Issued by NWS

Home | Current Version | Previous Version | Text Only | Print | Product List | Glossary Off
Versions: 1 2 3 4 5 6 7 8 9 10 11 12 13 14 15 16 17 18 19 20 21 22 23 24 25 26 27 28 29 30 31 32 33 34 35 36 37 38 39 40 41 42 43 44 45 46 47 48 49 50

000
ASUS43 KIND 191509
RWRIN

WEATHER ROUNDUP FOR INDIANA
NATIONAL WEATHER SERVICE INDIANAPOLIS IN
1000 AM EST SUN FEB 19 2017

NOTE: "FAIR" INDICATES FEW OR NO CLOUDS BELOW 12,000 FEET WITH NO
SIGNIFICANT WEATHER AND/OR OBSTRUCTIONS TO VISIBILITY.

* - STATION DOES NOT REPORT WEATHER SUCH AS PRECIPITATION OR FOG.

+ - STATION NOT QUALITY CONTROLLED BY THE NATIONAL WEATHER SERVICE.
    USE DATA WITH CAUTION...ESPECIALLY DEWPOINT AND RELATIVE
    HUMIDITY OBSERVATIONS.

INZ001>003-010>013-019-020-191600-
NORTHWEST INDIANA

CITY           SKY/WX    TMP DP  RH WIND       PRES   REMARKS
GARY /AIRPORT/ SUNNY     48  39  71 CALM      30.05R
KNOX *+        MOSUNNY   37  32  81 CALM      30.06R
LA PORTE +     SUNNY     51  38  60 CALM      30.05R
MICHIGAN CITY+ SUNNY     46  39  76 CALM      30.05S
MONTICELLO +   CLOUDY    44  43  95 SW5       30.06R FOG
RENSSELAER +   FOG       41  41 100 S6        30.06R VSB<1/4
VALPARAISO     SUNNY     50  43  77 E5        30.05R

$$

LMZ046-743>745-191600-
SOUTHERN LAKE MICHIGAN

STATION/POSITION TIME  TEMP    WIND        PRES    WAVE
                       AIR SEA DIR/SP/G            HT
                 (UTC) (F)     (DEG/KT/KT) (MB)    (FT)
BURNS HARBOR     1440   47     210/  1/  2 1017.9R
MICHIGAN CITY    1440   45     190/  3/  4   N/A

$$

INZ004-005-014>016-021>024-191600-
NORTH CENTRAL INDIANA

CITY           SKY/WX    TMP DP  RH WIND       PRES   REMARKS
ELKHART        SUNNY     46  37  71 CALM      30.04R
GOSHEN         SUNNY     47  39  74 W3        30.05R
LOGANSPORT +   CLOUDY    43  43 100 SW7       30.08R FOG
PERU/GRISSOM   CLOUDY    46  46 100 SW6       30.06R FOG
ROCHESTER +    FOG       43 N/A N/A SW7       30.07R VSB 1/4
SOUTH BEND     SUNNY     49  38  65 W5        30.05R
WARSAW +       FOG       39  39 100 SW3       30.06R VSB 3/4

$$

INZ006>009-017-018-025>027-191600-
NORTHEAST INDIANA

CITY           SKY/WX    TMP DP  RH WIND       PRES   REMARKS
ANGOLA *+      SUNNY     48  41  76 NW7       30.03R
AUBURN +       MOSUNNY   43  39  87 W7        30.05R FOG
FORT WAYNE     FOG       45  43  93 W9        30.05R VSB 1
HUNTINGTON +   CLOUDY    45  44  96 SW9       30.05R FOG
KENDALLVILLE + SUNNY     47  40  76 W8        30.04R

$$

INZ028-029-035-036-043>045-051>053-191600-
WEST CENTRAL INDIANA

CITY           SKY/WX    TMP DP  RH WIND       PRES   REMARKS
GREENCASTLE +  CLOUDY    48  46  93 SW3       30.09R FOG
LAFAYETTE      CLOUDY    48  45  89 SW5       30.07R FOG
TERRE HAUTE    CLOUDY    51  46  83 S3        30.09R

$$

INZ030>032-037>040-046>048-054>057-064-065-191600-
CENTRAL INDIANA

CITY           SKY/WX    TMP DP  RH WIND       PRES   REMARKS
CP ATTERBURY + CLOUDY    46  45  93 CALM      30.10R
COLUMBUS       CLOUDY    46  46 100 CALM      30.10R
FRANKFORT +    CLOUDY    51  47  88 W7        30.09R FOG
GREENWOOD *+   CLOUDY    50  47  92 CALM      30.09R
INDIANAPOLIS   CLOUDY    50  45  83 W6        30.08R HAZE
-EAGLE CREEK   CLOUDY    49  45  86 NW5       30.08R FOG
KOKOMO +       CLOUDY    47  44  90 W8        30.08R FOG
MARION +       CLOUDY    46  44  93 W8        30.08R FOG
MT COMFORT *+  CLOUDY    48  45  87 W3        30.08R
SHELBYVILLE    CLOUDY    50  45  83 CALM      30.08R HAZE
ZIONSVILLE +   CLOUDY    47  45  91 W6        30.08R FOG

$$

INZ033-034-041-042-049-050-058-059-191600-
EAST CENTRAL INDIANA

CITY           SKY/WX    TMP DP  RH WIND       PRES   REMARKS
MUNCIE         CLOUDY    49  44  83 W7        30.07R HAZE

$$

INZ060-061-067>069-081>083-085>088-191600-
SOUTHWEST INDIANA

CITY           SKY/WX    TMP DP  RH WIND       PRES   REMARKS
EVANSVILLE     CLOUDY    52  48  86 CALM      30.12R FOG
HUNTINGBURG *+ CLOUDY    50  48  93 CALM      30.11R
WASHINGTON +   CLOUDY    50  48  92 CALM      30.10S FOG

$$

INZ062-063-066-070>080-084-089>092-191600-
SOUTH CENTRAL AND SOUTHEAST INDIANA

CITY           SKY/WX    TMP DP  RH WIND       PRES   REMARKS
BEDFORD +      CLOUDY    48  46  93 W3        30.09R FOG
BLOOMINGTON    CLOUDY    48  46  93 SW5       30.09R FOG
MADISON *+     CLOUDY    50  46  87 SW3       30.11R
NORTH VERNON + CLOUDY   N/A N/A N/A W3        30.09R HAZE
SEYMOUR +      CLOUDY    52  48  87 W6        30.10R FOG

$$





USA.gov is the U.S. government's official web portal to all federal, state and local government web resources and services.